GW5457 Weather Reports


time (UTC)temp
C
wind
direction
speed
KPH
gust
KPH
rain 1hr
cm
rain 24hr
cm
rain mn
cm
humidity
%
barometer
mb
20260503033122 13 326 0.0 0.0 0.00 0.00 0.00 47 1016.2
20260503032620 13 325 0.0 0.0 0.00 0.00 0.00 44 1016.2
20260503032118 13 324 1.6 1.6 0.00 0.00 0.00 44 1016.0
20260503031615 13 326 0.0 0.0 0.00 0.00 0.00 44 1015.9
20260503031113 13 46 3.2 3.2 0.00 0.00 0.00 43 1015.8
20260503030609 12 337 1.6 1.6 0.00 0.00 0.00 44 1015.7
20260503030106 13 337 0.0 0.0 0.00 0.00 0.00 43 1015.6
20260503025602 13 345 0.0 0.0 0.00 0.00 0.00 42 1015.6
20260503025100 13 338 0.0 0.0 0.00 0.00 0.00 42 1015.5
20260503024556 13 346 0.0 1.6 0.00 0.00 0.00 42 1015.6
20260503024054 14 33 0.0 0.0 0.00 0.00 0.00 42 1015.5
20260503023550 15 42 0.0 0.0 0.00 0.00 0.00 42 1015.4
20260503023048 15 60 0.0 0.0 0.00 0.00 0.00 41 1015.4
20260503022544 15 54 0.0 0.0 0.00 0.00 0.00 41 1015.4
20260503022038 16 28 0.0 0.0 0.00 0.00 0.00 39 1015.5
20260503021536 16 323 0.0 0.0 0.00 0.00 0.00 39 1015.3
20260503021032 16 323 0.0 0.0 0.00 0.00 0.00 38 1015.5
20260503020530 16 323 0.0 0.0 0.00 0.00 0.00 38 1015.3
20260503020026 16 323 0.0 0.0 0.00 0.00 0.00 37 1015.6
20260503015523 17 322 0.0 0.0 0.00 0.00 0.00 36 1015.5
20260503015020 17 322 0.0 0.0 0.00 0.00 0.00 35 1015.4
20260503014516 17 323 0.0 0.0 0.00 0.00 0.00 35 1015.5
20260503014015 18 319 0.0 0.0 0.00 0.00 0.00 35 1015.2
20260503013511 18 74 0.0 0.0 0.00 0.00 0.00 34 1015.3
20260503013009 18 340 0.0 0.0 0.00 0.00 0.00 33 1015.4
20260503012506 18 286 0.0 0.0 0.00 0.00 0.00 34 1015.6
20260503012002 18 307 0.0 0.0 0.00 0.00 0.00 33 1015.4
20260503011459 19 284 0.0 0.0 0.00 0.00 0.00 33 1015.5
20260503010956 18 287 1.6 3.2 0.00 0.00 0.00 33 1015.6
20260503010453 19 262 0.0 0.0 0.00 0.00 0.00 32 1015.7
20260503005950 18 121 0.0 0.0 0.00 0.00 0.00 34 1015.8
20260503005447 18 130 0.0 0.0 0.00 0.00 0.00 33 1015.8
20260503004944 18 359 0.0 1.6 0.00 0.00 0.00 34 1015.9
20260503004440 18 27 3.2 3.2 0.00 0.00 0.00 34 1015.8
20260503003938 18 76 4.8 4.8 0.00 0.00 0.00 35 1016.0
20260503003435 18 25 0.0 0.0 0.00 0.00 0.00 35 1016.0
20260503002932 18 137 0.0 0.0 0.00 0.00 0.00 35 1015.9
20260503002429 18 212 0.0 0.0 0.00 0.00 0.00 34 1016.0
20260503001926 18 271 0.0 0.0 0.00 0.00 0.00 35 1016.2
20260503001422 18 254 0.0 0.0 0.00 0.00 0.00 35 1016.2
20260503000920 18 245 4.8 4.8 0.00 0.00 0.00 35 1015.9
20260503000417 18 221 1.6 3.2 0.00 0.00 0.00 35 1015.9
20260502235914 18 245 3.2 3.2 0.00 0.00 0.00 35 1016.3
20260502235411 18 170 4.8 4.8 0.00 0.00 0.00 34 1016.3
20260502234908 18 165 1.6 3.2 0.00 0.00 0.00 36 1016.3
20260502234404 18 227 0.0 0.0 0.00 0.00 0.00 34 1016.3
20260502233902 18 158 6.4 8.0 0.00 0.00 0.00 34 1016.4
20260502233357 18 151 8.0 11.3 0.00 0.00 0.00 34 1016.3
20260502232854 18 203 3.2 3.2 0.00 0.00 0.00 34 1016.6
20260502232351 18 210 1.6 1.6 0.00 0.00 0.00 35 1016.6
20260502231847 18 40 0.0 1.6 0.00 0.00 0.00 35 1016.7
20260502231345 18 256 0.0 0.0 0.00 0.00 0.00 35 1016.8
20260502230843 18 322 3.2 3.2 0.00 0.00 0.00 35 1016.8
20260502230341 17 304 8.0 9.7 0.00 0.00 0.00 36 1016.8
20260502225838 18 11 8.0 9.7 0.00 0.00 0.00 35 1016.8
20260502225334 18 351 1.6 1.6 0.00 0.00 0.00 35 1016.9
20260502224831 18 333 9.7 11.3 0.00 0.00 0.00 35 1016.8
20260502224327 18 326 4.8 4.8 0.00 0.00 0.00 35 1016.9
20260502223825 18 358 6.4 8.0 0.00 0.00 0.00 35 1017.1
20260502223323 18 346 3.2 4.8 0.00 0.00 0.00 35 1017.1
20260502222820 18 224 0.0 0.0 0.00 0.00 0.00 37 1017.5
20260502222317 18 353 8.0 9.7 0.00 0.00 0.00 35 1017.4
20260502221813 18 313 4.8 4.8 0.00 0.00 0.00 37 1017.5
20260502221309 18 359 9.7 11.3 0.00 0.00 0.00 36 1017.4
20260502220807 18 16 4.8 4.8 0.00 0.00 0.00 36 1017.5
20260502220302 18 7 0.0 0.0 0.00 0.00 0.00 38 1017.6
20260502215759 18 327 11.3 12.9 0.00 0.00 0.00 36 1017.7
20260502215257 17 40 4.8 4.8 0.00 0.00 0.00 37 1017.9
20260502214754 18 353 0.0 0.0 0.00 0.00 0.00 37 1018.0
20260502214250 18 299 6.4 9.7 0.00 0.00 0.00 37 1017.8
20260502213748 18 293 0.0 3.2 0.00 0.00 0.00 37 1018.1
20260502213245 18 355 8.0 9.7 0.00 0.00 0.00 36 1018.0
20260502212744 18 279 1.6 3.2 0.00 0.00 0.00 36 1018.1
20260502212242 18 254 0.0 0.0 0.00 0.00 0.00 37 1018.0
20260502211737 17 297 1.6 1.6 0.00 0.00 0.00 38 1018.4
20260502211234 17 308 6.4 8.0 0.00 0.00 0.00 37 1018.4
20260502210731 17 319 12.9 14.5 0.00 0.00 0.00 38 1018.4
20260502210229 18 342 0.0 0.0 0.00 0.00 0.00 37 1018.4
20260502205726 19 280 3.2 4.8 0.00 0.00 0.00 37 1018.5
20260502205222 18 284 8.0 9.7 0.00 0.00 0.00 38 1018.5
20260502204719 18 243 0.0 0.0 0.00 0.00 0.00 39 1018.5
20260502204217 17 280 3.2 4.8 0.00 0.00 0.00 38 1018.6
20260502203714 18 332 11.3 12.9 0.00 0.00 0.00 37 1018.8
20260502203212 18 348 11.3 14.5 0.00 0.00 0.00 36 1018.8
20260502202705 17 54 11.3 12.9 0.00 0.00 0.00 39 1018.9
20260502202204 17 301 0.0 0.0 0.00 0.00 0.00 40 1018.8
20260502201701 17 65 11.3 12.9 0.00 0.00 0.00 39 1018.9
20260502201158 17 3 12.9 14.5 0.00 0.00 0.00 38 1018.9
20260502200653 17 24 8.0 9.7 0.00 0.00 0.00 39 1018.9
20260502200150 17 55 9.7 11.3 0.00 0.00 0.00 39 1019.1
20260502195649 16 31 6.4 9.7 0.00 0.00 0.00 41 1019.2
20260502195144 16 63 9.7 11.3 0.00 0.00 0.00 41 1019.2
20260502194641 16 43 8.0 11.3 0.00 0.00 0.00 42 1019.3
20260502194138 16 22 11.3 16.1 0.00 0.00 0.00 41 1019.5
20260502193634 16 18 9.7 12.9 0.00 0.00 0.00 41 1019.6
20260502193132 16 23 11.3 14.5 0.00 0.00 0.00 40 1019.7
20260502192627 16 51 12.9 16.1 0.00 0.00 0.00 40 1019.5
20260502192125 16 55 11.3 14.5 0.00 0.00 0.00 40 1019.3
20260502191621 16 11 8.0 9.7 0.00 0.00 0.00 40 1019.3
20260502191119 16 27 12.9 16.1 0.00 0.00 0.00 40 1019.6
20260502190616 16 42 9.7 14.5 0.00 0.00 0.00 40 1019.5
20260502190114 16 50 11.3 14.5 0.00 0.00 0.00 40 1019.7
20260502185608 16 41 9.7 11.3 0.00 0.00 0.00 41 1019.6
20260502185105 16 52 4.8 8.0 0.00 0.00 0.00 42 1019.7
20260502184601 16 20 9.7 11.3 0.00 0.00 0.00 42 1019.7
20260502184057 16 32 4.8 8.0 0.00 0.00 0.00 42 1019.7
20260502183554 16 17 11.3 11.3 0.00 0.00 0.00 41 1019.7
20260502183050 16 69 9.7 12.9 0.00 0.00 0.00 42 1019.8
20260502182545 16 52 11.3 16.1 0.00 0.00 0.00 41 1019.8
20260502182041 16 27 6.4 9.7 0.00 0.00 0.00 41 1019.9
20260502181539 16 22 1.6 1.6 0.00 0.00 0.00 41 1019.8
20260502181038 16 48 3.2 8.0 0.00 0.00 0.00 40 1019.8
20260502180534 17 335 9.7 11.3 0.00 0.00 0.00 40 1020.0
20260502170453 16 56 14.5 17.7 0.00 0.00 0.00 39 1020.0
20260502163930 17 26 14.5 16.1 0.00 0.00 0.00 38 1020.0
20260502163427 17 45 11.3 12.9 0.00 0.00 0.00 39 1019.9
20260502162925 16 21 11.3 12.9 0.00 0.00 0.00 40 1020.0
20260502162421 16 33 14.5 14.5 0.00 0.00 0.00 40 1020.1
20260502161918 17 23 11.3 16.1 0.00 0.00 0.00 39 1019.9
20260502161414 16 24 12.9 16.1 0.00 0.00 0.00 40 1020.0
20260502160913 16 25 12.9 16.1 0.00 0.00 0.00 40 1020.0
20260502160411 16 41 12.9 14.5 0.00 0.00 0.00 40 1020.0
20260502151849 15 26 11.3 16.1 0.00 0.00 0.00 43 1019.7
20260502151345 15 42 8.0 9.7 0.00 0.00 0.00 43 1019.7
20260502150843 15 31 12.9 14.5 0.00 0.00 0.00 42 1019.6
20260502150339 15 44 14.5 16.1 0.00 0.00 0.00 41 1019.6
20260502130727 10 34 11.3 12.9 0.00 0.00 0.00 52 1019.0
20260502130225 10 40 11.3 14.5 0.00 0.00 0.00 52 1018.8
20260502123711 8 14 11.3 12.9 0.00 0.00 0.00 56 1018.6
20260502123208 8 23 11.3 12.9 0.00 0.00 0.00 57 1018.7
20260502122704 8 354 6.4 9.7 0.00 0.00 0.00 57 1018.6
20260502122200 8 14 6.4 8.0 0.00 0.00 0.00 57 1018.4
20260502121659 8 16 8.0 11.3 0.00 0.00 0.00 57 1018.2
20260502121156 8 49 8.0 11.3 0.00 0.00 0.00 56 1018.1
20260502120653 8 50 9.7 12.9 0.00 0.00 0.00 56 1018.2
20260502120149 8 41 11.3 14.5 0.00 0.00 0.00 55 1018.1
20260502115647 8 30 11.3 14.5 0.00 0.00 0.00 55 1018.2
20260502115143 8 32 8.0 9.7 0.00 0.00 0.00 56 1018.4
20260502114639 8 31 4.8 8.0 0.00 0.00 0.00 56 1018.2
20260502114137 8 7 9.7 12.9 0.00 0.00 0.00 55 1018.1
20260502113634 8 357 12.9 16.1 0.00 0.00 0.00 55 1018.1
20260502113132 8 10 9.7 12.9 0.00 0.00 0.00 54 1017.9
20260502112630 8 12 11.3 14.5 0.00 0.00 0.00 53 1017.9
20260502112127 8 359 12.9 14.5 0.00 0.00 0.00 53 1017.7
20260502111625 8 29 11.3 12.9 0.00 0.00 0.00 53 1017.5
20260502111122 8 16 14.5 16.1 0.00 0.00 0.00 52 1017.6
20260502110620 8 30 8.0 9.7 0.00 0.00 0.00 52 1017.4
20260502110117 8 18 9.7 11.3 0.00 0.00 0.00 52 1017.3
20260502105614 9 28 6.4 9.7 0.00 0.00 0.00 50 1017.4
20260502105111 8 21 8.0 12.9 0.00 0.00 0.00 51 1017.1
20260502104608 8 354 4.8 4.8 0.00 0.00 0.00 51 1017.1
20260502104106 8 343 3.2 4.8 0.00 0.00 0.00 51 1017.0
20260502103603 8 2 3.2 3.2 0.00 0.00 0.00 51 1016.7
20260502103101 8 26 3.2 3.2 0.00 0.00 0.00 51 1016.6
20260502102557 8 45 4.8 4.8 0.00 0.00 0.00 50 1016.9
20260502102054 8 36 4.8 8.0 0.00 0.00 0.00 49 1016.5
20260502101552 9 26 4.8 4.8 0.00 0.00 0.00 48 1016.9
20260502101050 10 10 4.8 4.8 0.00 0.00 0.00 47 1016.7
20260502100548 10 7 3.2 3.2 0.00 0.00 0.00 46 1016.8
20260502091523 6 310 0.0 0.0 0.00 0.00 0.00 48 1016.2
20260502091021 6 38 4.8 4.8 0.00 0.00 0.00 49 1016.2
20260502090517 7 30 9.7 12.9 0.00 0.00 0.00 47 1016.0
20260502071412 8 58 3.2 3.2 0.00 0.00 0.00 44 1015.4
20260502070910 7 59 3.2 3.2 0.00 0.00 0.00 45 1015.3
20260502070408 7 71 4.8 8.0 0.00 0.00 0.00 44 1015.3
20260502065906 8 76 3.2 3.2 0.00 0.00 0.00 44 1015.1
20260502065404 8 344 3.2 3.2 0.00 0.00 0.00 43 1015.4
20260502064902 8 356 1.6 1.6 0.00 0.00 0.00 44 1015.3
20260502064400 8 306 0.0 0.0 0.00 0.00 0.00 43 1015.4
20260502063856 10 329 1.6 3.2 0.00 0.00 0.00 41 1015.3
20260502063354 10 324 6.4 8.0 0.00 0.00 0.00 40 1015.2
20260502062851 10 321 4.8 4.8 0.00 0.00 0.00 41 1015.2
20260502062349 10 304 3.2 3.2 0.00 0.00 0.00 39 1015.2
20260502061848 10 308 6.4 8.0 0.00 0.00 0.00 40 1015.3
20260502061345 8 338 4.8 4.8 0.00 0.00 0.00 40 1015.2
20260502060840 8 347 3.2 3.2 0.00 0.00 0.00 40 1015.3
20260502060336 8 348 1.6 3.2 0.00 0.00 0.00 39 1015.2
20260502055833 8 353 3.2 3.2 0.00 0.00 0.00 38 1015.3
20260502055331 8 12 1.6 1.6 0.00 0.00 0.00 37 1015.3
20260502054831 9 3 1.6 1.6 0.00 0.00 0.00 36 1015.1
20260502054328 10 4 1.6 1.6 0.00 0.00 0.00 36 1015.3
20260502053825 9 337 1.6 1.6 0.00 0.00 0.00 36 1015.2
20260502053322 9 40 4.8 4.8 0.00 0.00 0.00 36 1014.9
20260502052820 8 323 0.0 0.0 0.00 0.00 0.00 37 1015.2
20260502052318 9 323 0.0 0.0 0.00 0.00 0.00 36 1015.2
20260502051815 9 322 0.0 0.0 0.00 0.00 0.00 35 1015.2
20260502051314 10 348 1.6 1.6 0.00 0.00 0.00 34 1015.2
20260502050810 10 3 1.6 1.6 0.00 0.00 0.00 34 1015.2
20260502050306 10 354 1.6 3.2 0.00 0.00 0.00 33 1015.1
20260502045803 11 23 1.6 1.6 0.00 0.00 0.00 33 1015.1
20260502045300 11 328 3.2 3.2 0.00 0.00 0.00 32 1015.2
20260502044757 13 32 4.8 4.8 0.00 0.00 0.00 30 1015.1
20260502044253 13 326 8.0 11.3 0.00 0.00 0.00 30 1014.9
20260502043750 13 310 8.0 9.7 0.00 0.00 0.00 29 1014.8
20260502043248 13 317 8.0 12.9 0.00 0.00 0.00 29 1014.9
20260502042747 13 320 9.7 11.3 0.00 0.00 0.00 29 1014.8
20260502042245 13 322 9.7 11.3 0.00 0.00 0.00 29 1014.9
20260502041742 13 326 6.4 8.0 0.00 0.00 0.00 29 1014.8
20260502041240 13 308 9.7 11.3 0.00 0.00 0.00 28 1014.8
20260502040736 13 306 8.0 9.7 0.00 0.00 0.00 27 1014.7
20260502040233 15 305 9.7 9.7 0.00 0.00 0.00 25 1014.8
20260502035729 15 300 8.0 9.7 0.00 0.00 0.00 24 1014.8
20260502035226 15 301 9.7 11.3 0.00 0.00 0.00 24 1014.8
20260502034724 14 296 11.3 12.9 0.00 0.00 0.00 25 1014.7
20260502034222 14 310 11.3 11.3 0.00 0.00 0.00 25 1014.8
20260502033720 14 300 8.0 9.7 0.00 0.00 0.00 25 1014.7
20260502033217 16 319 11.3 12.9 0.00 0.00 0.00 23 1014.6